Location: Oberkirch
(48.5323°N, 8.0787°E)
Time: 21:11:07
(UTC+00:00)

Tiros 1 - Pass Details

Date: 21 February 2026
Orbit: 618 x 649 km, 48.4° (Epoch: 5 March)

Event Time Altitude Azimuth Distance (km) Brightness Sun altitude
Rises 06:03:55 0° 202° (SSW) 2,916 10.4 -4.2°
Reaches altitude 10° 06:06:47 10° 185° (S) 2,005 9.8 -3.7°
Maximum altitude 06:10:01 19° 140° (SE) 1,504 9.9 -3.2°
Drops below altitude 10° 06:13:13 10° 96° (E) 1,999 11.7 -2.7°
Sets 06:16:04 0° 78° (ENE) 2,903 11.9 -2.2°
